Location: Izdebno
(52.6670°N, 16.2170°E)
Time: 18:26:18
(UTC+01:00)

Vanguard 1 Rocket - All Passes

Search period start: 07 February 2023 00:00
Search period end: 17 February 2023 00:00
Orbit: 651 x 4224 km, 34.3° (Epoch: 06 February)

Date Brightness Start Highest point End Pass type
(mag) Time Alt. Az. Time Alt. Az. Time Alt. Az.
07 Feb - 11:45:08 10° SSW 11:53:23 30° SSE 12:07:02 10° ESE daylight
07 Feb - 14:07:48 10° WSW 14:19:14 38° S 14:38:12 10° SE daylight
07 Feb - 16:33:16 10° WSW 16:46:45 29° SSW 17:05:33 10° SSE daylight
07 Feb - 19:07:10 10° WSW 19:13:50 12° SW 19:21:02 10° SSW visible
08 Feb - 10:36:08 10° S 10:42:23 21° SE 10:51:42 10° ESE daylight
08 Feb - 12:57:22 10° SW 13:07:01 36° S 13:23:31 10° ESE daylight
08 Feb - 15:21:30 10° WSW 15:33:51 33° SSW 15:52:50 10° SE daylight
08 Feb - 17:49:53 10° WSW 18:01:16 19° SW 18:15:14 10° S visible
09 Feb - 09:29:10 10° SSE 09:31:56 12° SE 09:35:10 10° ESE daylight
09 Feb - 11:47:26 10° SW 11:55:22 30° SSE 12:08:39 10° ESE daylight
09 Feb - 14:10:25 10° WSW 14:21:15 35° S 14:39:05 10° SE daylight
09 Feb - 16:36:24 10° WSW 16:48:31 24° SSW 17:05:05 10° SSE daylight
10 Feb - 10:38:10 10° SSW 10:44:19 22° SSE 10:53:43 10° ESE daylight
10 Feb - 12:59:54 10° SW 13:09:05 34° S 13:24:44 10° ESE daylight
10 Feb - 15:24:22 10° WSW 15:35:47 29° SSW 15:53:01 10° SSE daylight
10 Feb - 17:54:55 10° WSW 18:02:53 14° SW 18:12:09 10° SSW visible
11 Feb - 09:30:13 10° SSE 09:33:46 14° SE 09:38:16 10° ESE daylight
11 Feb - 11:49:52 10° SW 11:57:28 30° SSE 12:10:10 10° ESE daylight
11 Feb - 14:13:10 10° WSW 14:23:19 31° S 14:39:45 10° SE daylight
11 Feb - 16:40:01 10° WSW 16:50:20 19° SSW 17:03:54 10° S daylight
12 Feb - 10:40:23 10° SSW 10:46:22 23° SSE 10:55:36 10° ESE daylight
12 Feb - 13:02:33 10° WSW 13:11:14 32° S 13:25:48 10° SE daylight
12 Feb - 15:27:30 10° WSW 15:37:47 24° SSW 15:52:45 10° SSE daylight
13 Feb - 09:31:51 10° S 09:35:44 15° SE 09:40:51 10° ESE daylight
13 Feb - 11:52:24 10° SW 11:59:38 29° S 12:11:36 10° ESE daylight
13 Feb - 14:16:04 10° WSW 14:25:26 27° SSW 14:40:08 10° SSE daylight
13 Feb - 16:44:37 10° WSW 16:52:12 14° SW 17:01:30 10° S daylight
14 Feb - 10:42:45 10° SSW 10:48:31 24° SSE 10:57:24 10° ESE daylight
14 Feb - 13:05:20 10° WSW 13:13:26 28° S 13:26:41 10° SE daylight
14 Feb - 15:31:03 10° WSW 15:39:49 19° SSW 15:51:53 10° S daylight
15 Feb - 09:33:50 10° S 09:37:50 16° SSE 09:43:10 10° ESE daylight
15 Feb - 11:55:04 10° SW 12:01:52 27° S 12:12:54 10° SE daylight
15 Feb - 14:19:13 10° WSW 14:27:36 23° SSW 14:40:08 10° SSE daylight
16 Feb - 10:45:16 10° SW 10:50:44 23° SSE 10:59:05 10° ESE daylight
16 Feb - 13:08:16 10° WSW 13:15:42 24° S 13:27:20 10° SE daylight
16 Feb - 15:35:30 10° SW 15:41:54 14° SSW 15:49:56 10° S daylight
